#timestamp,LO_Frequency,Hit,StdDev 
1505404815.1,286047002.1,N,1.0
1505404816.0,286047002.1,N,1.0
1505404835.8,286047002.1,N,1.0
1505404855.7,286047001.5,N,1.0
1505404875.5,286047002.6,N,1.0
1505404895.3,286047003.9,Y,0.0
1505404915.2,286047000.3,P,0.5
1505404935.0,286047000.7,N,0.5
1505404935.9,286047000.7,N,0.4
1505404955.8,286047001.0,N,0.4
1505404975.6,286047000.0,N,0.5
1505404995.4,286047002.4,Y,0.0
1505405015.3,286046999.7,P,0.5
1505405035.1,286047000.1,N,0.4
1505405055.9,286047002.2,P,0.9
1505405075.7,286047002.5,N,1.1
1505405095.5,286046999.7,N,1.1
1505405115.4,286046999.8,N,1.1
1505405135.2,286046999.9,N,1.1
1505405155.1,286047002.4,N,1.2
1505405156.0,286047002.4,N,1.2
1505405175.8,286047002.7,N,1.3
1505405195.7,286047000.3,N,1.2
1505405215.5,286047000.6,N,1.2
1505405235.3,286046999.7,N,1.2
1505405255.2,286047001.0,N,1.1
1505405275.0,286047000.4,N,1.1
1505405275.9,286047000.4,N,1.1
1505405295.7,286047000.5,N,1.1
1505405315.6,286046998.1,N,1.2
1505405335.4,286046999.8,N,1.2
1505405355.3,286047001.1,N,1.2
1505405375.1,286046999.0,N,1.2
1505405395.8,286046999.3,N,1.2
1505405415.7,286046999.3,N,1.2
1505405435.5,286046997.0,N,1.4
1505405455.4,286046997.4,N,1.4
1505405475.2,286046996.8,N,1.6
1505405495.0,286046997.8,N,1.6
1505405495.9,286046997.8,N,1.6
1505405515.8,286046997.9,N,1.6
1505405535.6,286046997.9,N,1.7
1505405555.4,286046995.2,N,1.8
1505405575.3,286046993.3,Y,0.0
1505405595.1,286046993.3,P,3.2
1505405615.9,286046993.5,N,2.9
1505405635.7,286046996.4,N,2.6
1505405655.5,286046995.7,N,2.3
1505405675.4,286046995.5,N,2.1
1505405695.2,286046996.0,N,2.0
1505405715.1,286046996.0,N,1.8
1505405716.0,286046996.0,N,1.7
1505405735.8,286046993.9,Y,0.0
1505405755.6,286046998.4,P,1.3
1505405775.5,286046999.1,N,1.4
1505405795.3,286046999.3,N,1.4
1505405815.2,286046996.5,N,1.4
1505405835.9,286046996.7,N,1.4
1505405855.7,286046999.5,N,1.4
1505405875.6,286046997.1,N,1.4
1505405895.4,286046997.3,N,1.3
1505405915.2,286046997.2,N,1.2
1505405935.1,286046997.0,N,1.2
1505405936.0,286046997.0,N,1.2
1505405955.8,286046997.3,N,1.1
1505405975.7,286046997.9,N,1.1
1505405995.5,286046995.6,Y,0.0
1505406015.3,286046998.8,P,0.6
1505406035.2,286046998.9,N,0.6
1505406055.0,286046996.5,P,1.0
1505406055.9,286046996.5,Y,0.0
1505406075.8,286047001.0,P,1.5
1505406095.6,286047000.6,N,1.4
1505406115.4,286046998.2,N,1.4
1505406135.3,286046998.6,N,1.3
1505406155.1,286046998.8,N,1.2
1505406175.8,286047001.0,N,1.3
1505406195.7,286047000.8,N,1.3
1505406215.5,286046998.9,N,1.2
1505406235.4,286046998.7,N,1.2
1505406255.2,286046998.4,N,1.2
1505406275.0,286046999.1,N,1.1
1505406275.9,286046999.1,N,1.1
1505406295.8,286046999.2,N,1.0
1505406315.6,286046998.2,N,1.0
1505406335.5,286046998.8,N,1.0
1505406355.3,286046999.2,N,1.0
1505406375.1,286046999.1,N,1.0
1505406395.9,286046998.8,N,0.9
1505406415.7,286046998.2,N,0.9
1505406435.5,286046999.5,N,0.9
1505406455.4,286046996.5,Y,0.0
1505406475.2,286046998.9,P,0.1
1505406495.1,286046998.5,P,0.3
1505406496.0,286046998.5,P,0.3
1505406515.8,286046999.4,N,0.4
1505406535.6,286046998.8,Y,0.0
1505406555.5,286046998.9,P,0.0
1505406575.3,286046998.1,P,0.4
1505406595.2,286047001.2,P,1.2
1505406615.0,286047000.5,N,1.1
1505406615.9,286047000.5,N,1.1
1505406635.8,286047001.1,N,1.1
1505406655.6,286047000.8,N,1.1
1505406675.4,286047001.0,N,1.1
1505406695.3,286047000.8,N,1.1
1505406715.1,286047000.8,N,1.0
1505406735.8,286046998.8,N,1.1
1505406755.7,286047001.1,N,1.0
1505406775.5,286046998.2,N,1.1
1505406795.4,286047000.6,N,1.1
1505406815.2,286047001.0,N,1.1
1505406835.0,286047000.0,N,1.1
1505406835.9,286047000.0,N,1.0
1505406855.8,286047000.6,N,1.0
1505406875.6,286047001.1,N,1.0
1505406895.5,286047000.9,N,1.0
1505406915.3,286047001.2,N,1.0
1505406935.1,286042159.8,Y,0.0
1505406955.9,286047001.2,P,0.5
1505406975.7,286047000.9,N,0.4
1505406995.5,286046998.6,P,1.0
1505407015.4,286046998.9,N,1.0
1505407035.2,286046998.6,N,1.1
1505407055.1,286046998.4,N,1.1
1505407056.0,286046998.4,N,1.1
1505407075.8,286046999.3,N,1.0
1505407095.6,286046999.1,N,1.0
1505407115.5,286046998.8,N,1.0
1505407135.3,286046998.9,N,0.9
1505407155.2,286046999.5,N,0.9
1505407175.9,286046999.1,N,0.9
1505407195.7,286046998.2,N,0.9
1505407215.6,286046999.0,N,0.8
1505407235.4,286046999.6,N,0.8
1505407255.2,286046996.6,Y,0.0
1505407275.1,286046999.0,P,0.1
1505407276.0,286046999.0,P,0.1
1505407295.8,286047001.2,P,0.9
1505407315.7,286046998.5,N,0.9
1505407335.5,286047000.9,N,1.0
1505407355.3,286047001.1,N,1.1
1505407375.2,286047000.8,N,1.1
1505407395.0,286047000.7,N,1.0
1505407395.9,286047000.7,N,1.0
1505407415.8,286047000.7,N,1.0
1505407435.6,286046998.7,N,1.0
1505407455.4,286047000.8,N,1.0
1505407475.3,286046998.3,N,1.1
1505407495.1,286046998.3,N,1.1
1505407515.9,286046998.4,N,1.1
1505407535.7,286047000.5,N,1.1
1505407555.5,286047000.8,N,1.1
1505407575.4,286047002.4,N,1.2
1505407595.2,286047000.9,N,1.2
1505407615.0,286046999.9,N,1.2
1505407615.9,286046999.9,N,1.1
1505407635.8,286047000.0,N,1.1
1505407655.6,286047000.9,N,1.1
1505407675.5,286047000.5,N,1.1
1505407695.3,286046999.7,N,1.1
1505407715.1,286047002.8,N,1.2
1505407735.9,286047002.3,N,1.2
1505407755.7,286047001.5,N,1.2
1505407775.6,286047002.6,N,1.3
1505407795.4,286043213.5,Y,0.0
1505407815.2,286047002.8,P,1.2
1505407835.1,286047000.2,N,1.2
1505407836.0,286047000.2,N,1.1
1505407855.8,286047002.6,N,1.2
1505407875.7,286047001.8,N,1.1
1505407895.5,286047001.5,N,1.0
1505407915.3,286047001.4,N,1.0
1505407935.2,286047001.3,N,0.9
1505407955.9,286047001.5,N,0.9
1505407975.7,286047001.4,N,0.8
1505407995.6,286047001.7,N,0.8
1505408015.4,286047004.1,Y,0.0
1505408035.3,286047001.6,P,0.1
1505408055.1,286047002.6,P,0.5
1505408056.0,286047002.6,P,0.6
1505408075.8,286047002.5,Y,0.0
1505408095.7,286047000.9,P,0.6
1505408115.5,286046998.3,P,1.6
1505408135.4,286046998.6,N,1.6
1505408155.2,286046998.1,N,1.6
1505408175.0,286047000.4,N,1.5
1505408175.9,286047000.4,N,1.4
1505408195.8,286047001.0,N,1.4
1505408215.6,286046998.2,N,1.4
1505408235.5,286046998.9,N,1.4
1505408255.3,286047001.1,N,1.4
1505408275.1,286047000.8,N,1.3
1505408295.9,286046999.9,N,1.3
1505408315.7,286047002.8,N,1.4
1505408335.5,286046999.7,N,1.4
1505408355.4,286047000.3,N,1.3
1505408375.2,286047002.7,N,1.4
1505408395.1,286047002.4,N,1.5
1505408396.0,286047002.4,N,1.5
